User: anonymous   Login
Location: St. Malo Provincial Park
(49.3214°N, 96.9305°W)
Time: 14:25:39
(UTC-06:00)
Language:

Iridium 6 - Orbit

View from above orbital plane
View from above orbital plane
View from above satellite
View from above satellite

Ground track
Ground track

The orbit data is extracted from the following two-line orbital elements,

1 24794U 97020C   17022.47733689 -.00000070  00000-0 -32216-4 0  9990
2 24794  86.3948  19.8095 0002090  85.8567 274.2867 14.34213782 32318
Epoch (UTC): 22 January 2017 11:27:21
Eccentricity: 0.0002090
inclination: 86.3948°
perigee height: 776 km
apogee height: 779 km
right ascension of ascending node: 19.8095°
argument of perigee: 85.8567°
revolutions per day: 14.34213782
mean anomaly at epoch: 274.2867°
orbit number at epoch: 3231

The dashed part of the orbit path shows where the satellite is in the earth's shadow,  

DLR